"Period start","avg(HW err(1)/warn(2) (#))","avg(Visibility (m))","avg(Weather code (#))","avg(Precip intensity (mm/h))","min(HW err(1)/warn(2) (#))","max(HW err(1)/warn(2) (#))","std(HW err(1)/warn(2) (#))","med(HW err(1)/warn(2) (#))","min(Visibility (m))","max(Visibility (m))","std(Visibility (m))","med(Visibility (m))","min(Weather code (#))","max(Weather code (#))","std(Weather code (#))","med(Weather code (#))","min(Precip intensity (mm/h))","max(Precip intensity (mm/h))","std(Precip intensity (mm/h))","med(Precip intensity (mm/h))"
2016-09-08 00:00:00,2,49498,40,0.27,2,2,0,2,45758,50000,1264,50000,0,61,26,51,0.00,0.75,0.24,0.25
2016-09-08 00:10:00,2,49870,52,0.53,2,2,0,2,48699,50000,390,50000,51,52,0,52,0.20,0.90,0.21,0.55
2016-09-08 00:20:00,2,49522,51,0.40,2,2,0,2,45986,50000,1200,50000,51,52,0,51,0.25,0.70,0.14,0.35
2016-09-08 00:30:00,2,48517,52,1.06,2,2,0,2,44202,50000,1963,49570,51,61,3,51,0.15,3.35,1.04,0.60
2016-09-08 00:40:00,2,32153,61,5.75,2,2,0,2,21380,43269,6755,31144,61,62,0,61,2.00,14.90,3.56,5.15
2016-09-08 00:50:00,2,33835,61,3.45,2,2,0,2,21940,44955,7167,32647,61,61,0,61,1.10,5.05,1.34,4.25
2016-09-08 01:00:00,2,32926,61,3.11,2,2,0,2,25058,43581,5997,31634,61,61,0,61,0.90,7.85,2.27,2.22
2016-09-08 01:10:00,2,25913,61,4.34,2,2,0,2,19565,39126,6088,23582,61,61,0,61,0.35,8.40,2.54,4.03
2016-09-08 01:20:00,2,18966,62,12.71,2,2,0,2,15557,25286,2497,18558,61,62,0,62,5.85,20.35,4.35,13.00
2016-09-08 01:30:00,2,16746,62,14.07,2,2,0,2,8727,23000,4057,16312,61,62,0,62,5.95,23.15,5.19,13.47
2016-09-08 01:40:00,2,23491,61,9.50,2,2,0,2,10884,31665,5983,24886,61,62,0,61,3.05,16.60,4.74,8.90
2016-09-08 01:50:00,2,22700,61,8.31,2,2,0,2,15704,31924,4327,22083,61,62,0,61,3.60,17.65,3.94,8.03
2016-09-08 02:00:00,2,31272,61,5.34,2,2,0,2,20047,45891,8711,27478,61,61,0,61,2.40,9.35,2.07,5.05
2016-09-08 02:10:00,2,18203,62,12.61,2,2,0,2,9929,33746,7914,14848,61,62,0,62,4.85,26.75,6.50,11.90
2016-09-08 02:20:00,2,10709,62,17.43,2,2,0,2,6683,15845,2980,10757,61,62,0,62,7.65,30.70,7.38,16.75
2016-09-08 02:30:00,2,11625,62,20.25,2,2,0,2,7280,17307,3124,11395,62,62,0,62,5.85,33.30,8.80,23.60
2016-09-08 02:40:00,2,14894,62,11.13,2,2,0,2,10459,19188,2922,14802,61,62,0,62,5.95,21.35,4.14,9.85
2016-09-08 02:50:00,2,12881,62,16.59,2,2,0,2,8293,19088,3603,11866,61,62,0,62,6.65,35.70,8.63,12.50
2016-09-08 03:00:00,2,16509,61,9.88,2,2,0,2,9819,25139,4758,16274,61,62,0,61,4.05,20.45,5.39,8.72
2016-09-08 03:10:00,2,12008,61,10.59,2,2,0,2,5052,32404,7713,9850,61,62,0,61,3.55,33.95,9.33,5.75
2016-09-08 03:20:00,2,22936,61,9.57,2,2,0,2,14131,47265,9988,18632,61,62,0,61,2.65,20.40,5.00,8.90
2016-09-08 03:30:00,2,26866,61,4.15,2,2,0,2,22220,31290,3335,26226,61,61,0,61,1.85,5.70,1.14,4.17
2016-09-08 03:40:00,2,16028,61,5.53,2,2,0,2,11008,21068,3322,15080,61,62,0,61,2.60,10.20,2.36,5.12
2016-09-08 03:50:00,2,15110,61,6.07,2,2,0,2,11918,19342,1988,15044,61,62,0,61,3.60,10.25,2.27,5.12
2016-09-08 04:00:00,2,17906,61,8.20,2,2,0,2,15802,20940,1937,17286,61,62,0,61,3.90,13.95,3.08,7.90
2016-09-08 04:10:00,2,21241,61,5.74,2,2,0,2,17167,24006,2197,21342,61,62,0,61,3.25,11.05,2.20,4.93
2016-09-08 04:20:00,2,19760,61,7.15,2,2,0,2,10395,34118,7387,20768,61,62,0,61,3.85,12.35,2.37,6.97
2016-09-08 04:30:00,2,17205,61,7.31,2,2,0,2,14028,21392,2432,17045,61,62,0,61,3.95,11.45,2.87,6.92
2016-09-08 04:40:00,2,14653,62,12.06,2,2,0,2,11970,16176,1239,14732,61,62,0,62,9.00,14.50,1.56,11.65
2016-09-08 04:50:00,2,16674,62,9.95,2,2,0,2,12101,23770,3857,16826,61,62,0,62,5.30,13.60,2.31,9.95
2016-09-08 05:00:00,2,11663,61,6.42,2,2,0,2,8206,17076,2523,11042,61,62,0,61,3.25,11.00,2.44,6.25
2016-09-08 05:10:00,2,10089,61,9.51,2,2,0,2,6816,12157,1834,10686,61,62,0,61,6.15,15.90,2.72,8.57
2016-09-08 05:20:00,2,15050,62,10.44,2,2,0,2,12073,19281,1975,14537,61,62,0,62,4.80,19.45,3.85,9.82
2016-09-08 05:30:00,2,13810,62,9.57,2,2,0,2,10599,17747,2283,13655,61,62,0,62,5.85,14.90,2.68,9.75
2016-09-08 05:40:00,2,12281,62,10.86,2,2,0,2,9308,16577,2081,12792,61,62,0,62,6.90,16.50,2.35,10.72
2016-09-08 05:50:00,2,14468,61,9.54,2,2,0,2,11602,16828,1739,14679,61,62,0,61,5.60,14.35,2.69,9.47
2016-09-08 06:00:00,2,16314,61,8.32,2,2,0,2,13918,19334,1790,16060,61,62,0,61,4.25,12.30,2.24,8.15
2016-09-08 06:10:00,2,17178,61,6.89,2,2,0,2,12643,23744,3192,16662,61,62,0,61,2.75,11.55,2.42,7.05
2016-09-08 06:20:00,2,15014,61,10.89,2,2,0,2,9379,23701,5094,14522,61,62,0,61,6.15,20.40,4.94,8.30
2016-09-08 06:30:00,2,15815,61,7.73,2,2,0,2,9063,23872,4951,15410,61,62,0,61,4.30,14.05,3.63,6.00
2016-09-08 06:40:00,2,18276,61,4.44,2,2,0,2,14765,22236,2482,17434,61,61,0,61,2.60,6.75,1.05,4.30
2016-09-08 06:50:00,2,19084,61,3.86,2,2,0,2,13443,25085,3236,19515,61,61,0,61,2.40,6.55,1.15,3.67
2016-09-08 07:00:00,2,13965,61,7.37,2,2,0,2,8299,17783,2787,14372,61,62,0,61,3.60,13.00,2.96,6.40
2016-09-08 07:10:00,2,13036,62,12.93,2,2,0,2,7339,17137,3113,14021,61,62,0,62,3.35,28.70,8.06,10.20
2016-09-08 07:20:00,2,19225,61,5.90,2,2,0,2,14518,28594,4183,18030,61,61,0,61,3.60,8.85,1.27,5.62
2016-09-08 07:30:00,2,17326,61,6.40,2,2,0,2,11680,24715,4709,16383,61,62,0,61,4.00,12.95,2.66,5.03
2016-09-08 07:40:00,2,21433,61,4.29,2,2,0,2,14667,33367,5097,19379,61,61,0,61,2.85,5.60,0.85,4.32
2016-09-08 07:50:00,2,22286,61,5.51,2,2,0,2,16190,39070,6170,20748,61,62,0,61,2.20,12.55,2.69,4.88
2016-09-08 08:00:00,2,22666,61,4.54,2,2,0,2,14281,40607,7951,19633,61,61,0,61,1.85,8.65,1.80,4.28
2016-09-08 08:10:00,2,29464,61,2.60,2,2,0,2,17330,38129,7035,30880,61,61,0,61,0.90,5.60,1.22,2.62
2016-09-08 08:20:00,2,17968,61,4.13,2,2,0,2,13959,23107,2651,17342,61,61,0,61,2.15,8.20,1.89,3.83
2016-09-08 08:30:00,2,20210,61,3.48,2,2,0,2,16395,23855,2420,19504,61,61,0,61,1.85,6.15,1.19,3.33
2016-09-08 08:40:00,2,32129,61,2.59,2,2,0,2,19630,44409,7314,30314,61,61,0,61,0.95,4.40,0.95,2.42
2016-09-08 08:50:00,2,18313,61,4.04,2,2,0,2,13888,22269,2777,18501,61,61,0,61,1.95,6.60,1.44,4.42
2016-09-08 09:00:00,2,21620,57,2.58,2,2,0,2,13565,34801,7475,19609,52,61,4,61,1.05,6.05,1.46,2.10
2016-09-08 09:10:00,2,15598,61,6.26,2,2,0,2,12033,19808,3014,15240,61,61,0,61,3.65,9.15,1.65,6.10
2016-09-08 09:20:00,2,13745,61,4.63,2,2,0,2,10799,16795,1817,13748,61,61,0,61,3.10,8.30,1.42,4.50
2016-09-08 09:30:00,2,16107,61,3.80,2,2,0,2,12238,19677,2449,16192,61,61,0,61,2.00,5.90,1.18,3.58
2016-09-08 09:40:00,2,14662,61,2.00,2,2,0,2,10568,18406,2719,14170,61,61,0,61,0.45,6.25,1.61,1.70
2016-09-08 09:50:00,2,26660,56,1.04,2,2,0,2,11677,42894,9638,25692,51,61,4,52,0.05,2.55,0.73,0.77
2016-09-08 10:00:00,2,32226,56,2.31,2,2,0,2,21481,48834,7921,32078,52,61,4,56,0.40,3.45,1.03,2.55
2016-09-08 10:10:00,2,23499,61,2.86,2,2,0,2,18202,32819,4456,21846,61,61,0,61,1.30,5.55,1.15,2.70
2016-09-08 10:20:00,2,25018,61,2.48,2,2,0,2,17286,34572,5463,23879,61,61,0,61,1.35,3.30,0.62,2.58
2016-09-08 10:30:00,2,18404,61,4.34,2,2,0,2,13202,30022,5023,15914,61,61,0,61,2.30,6.00,1.27,4.67
2016-09-08 10:40:00,2,19712,62,9.78,2,2,0,2,8938,36150,9807,16826,61,62,0,62,1.90,20.30,5.94,10.97
2016-09-08 10:50:00,2,10903,62,14.48,2,2,0,2,7754,13965,1707,11010,61,62,0,62,7.40,22.35,4.30,13.68
2016-09-08 11:00:00,2,9118,62,11.75,2,2,0,2,5256,12068,1988,9551,61,62,0,62,6.00,25.25,5.57,10.22
2016-09-08 11:10:00,2,9983,62,13.41,2,2,0,2,5173,14463,2964,9693,61,62,0,62,9.10,24.20,4.46,11.85
2016-09-08 11:20:00,2,13933,61,6.68,2,2,0,2,11311,16312,1464,13810,61,62,0,61,4.80,10.00,1.59,6.33
2016-09-08 11:30:00,2,10236,62,11.69,2,2,0,2,7332,14391,1711,10026,61,62,0,62,5.30,17.40,3.46,12.00
2016-09-08 11:40:00,2,9317,62,15.32,2,2,0,2,7868,10395,822,9492,62,62,0,62,10.40,21.60,3.47,14.20
2016-09-08 11:50:00,2,8137,62,17.06,2,2,0,2,6077,10398,1812,7928,61,62,0,62,8.50,28.15,6.20,14.22
2016-09-08 12:00:00,2,12003,61,7.74,2,2,0,2,8767,16500,2064,11771,61,62,0,61,4.55,10.30,1.89,7.70
2016-09-08 12:10:00,2,18689,61,2.02,2,2,0,2,8877,42025,11290,12957,61,61,0,61,0.15,7.85,2.38,0.60
2016-09-08 12:20:00,2,23301,52,0.87,2,2,0,2,9482,50000,13690,17484,52,52,0,52,0.50,1.30,0.26,0.92
2016-09-08 12:30:00,2,12102,26,0.12,2,2,0,2,8871,20432,3452,10900,0,52,26,26,0.00,0.75,0.23,0.00
2016-09-08 12:40:00,2,38766,0,0.00,2,2,0,2,23210,50000,10817,40054,0,0,0,0,0.00,0.00,0.00,0.00
2016-09-08 12:50:00,2,46980,0,0.00,2,2,0,2,38938,50000,3855,48990,0,0,0,0,0.00,0.00,0.00,0.00
2016-09-08 13:00:00,2,40688,0,0.00,2,2,0,2,26683,50000,8617,42068,0,0,0,0,0.00,0.00,0.00,0.00
2016-09-08 13:10:00,2,41241,0,0.00,2,2,0,2,20988,50000,11220,48854,0,0,0,0,0.00,0.00,0.00,0.00
2016-09-08 13:20:00,2,46362,0,0.00,2,2,0,2,27741,50000,7296,50000,0,0,0,0,0.00,0.00,0.00,0.00
2016-09-08 13:30:00,2,46458,0,0.00,2,2,0,2,27833,50000,7127,50000,0,0,0,0,0.00,0.00,0.00,0.00
2016-09-08 13:40:00,2,35231,0,0.00,2,2,0,2,13171,50000,14541,37588,0,0,0,0,0.00,0.00,0.00,0.00
2016-09-08 13:50:00,2,25411,0,0.00,2,2,0,2,12698,45781,9830,23642,0,0,0,0,0.00,0.00,0.00,0.00
2016-09-08 14:00:00,2,49653,0,0.00,2,2,0,2,47805,50000,724,50000,0,0,0,0,0.00,0.00,0.00,0.00
2016-09-08 14:10:00,2,32173,0,0.00,2,2,0,2,18904,50000,9167,29530,0,0,0,0,0.00,0.00,0.00,0.00
2016-09-08 14:20:00,2,24453,45,2.61,2,2,0,2,12930,44363,11149,18016,0,61,24,61,0.00,6.95,2.23,1.98
2016-09-08 14:30:00,2,40930,56,0.25,2,2,0,2,27172,50000,9000,45506,51,61,5,56,0.00,0.80,0.24,0.20
2016-09-08 14:40:00,2,26347,54,2.16,2,2,0,2,17819,35642,6086,25717,51,61,5,51,0.15,5.55,1.99,1.42
2016-09-08 14:50:00,2,21034,61,7.96,2,2,0,2,6791,49547,13968,16692,61,62,0,61,0.20,25.05,7.62,5.40
2016-09-08 15:00:00,2,32743,51,0.07,2,2,0,2,19165,50000,9218,31854,0,61,18,56,0.00,0.30,0.09,0.03
2016-09-08 15:10:00,2,28679,0,0.00,2,2,0,2,7179,49488,16899,33908,0,0,0,0,0.00,0.00,0.00,0.00
2016-09-08 15:20:00,2,11402,49,0.35,2,2,0,2,7973,14585,2145,10851,0,61,24,61,0.00,0.85,0.35,0.17
2016-09-08 15:30:00,2,6321,32,0.05,2,2,0,2,5383,7504,756,6315,10,61,23,30,0.00,0.15,0.06,0.03
2016-09-08 15:40:00,2,7087,10,0.00,2,2,0,2,4731,14162,3038,5746,10,10,0,10,0.00,0.00,0.00,0.00
2016-09-08 15:50:00,2,9816,10,0.00,2,2,0,2,7114,14003,2010,9458,10,10,0,10,0.00,0.00,0.00,0.00
2016-09-08 16:00:00,2,10148,10,0.00,2,2,0,2,8177,12654,1105,10246,10,10,0,10,0.00,0.00,0.00,0.00
2016-09-08 16:10:00,2,13577,6,0.00,2,2,0,2,9849,17328,2259,13406,0,10,5,10,0.00,0.00,0.00,0.00
2016-09-08 16:20:00,2,12111,0,0.00,2,2,0,2,9471,20068,3065,10743,0,0,0,0,0.00,0.00,0.00,0.00
2016-09-08 16:30:00,2,28259,0,0.00,2,2,0,2,21124,38453,5389,27369,0,0,0,0,0.00,0.00,0.00,0.00
2016-09-08 16:40:00,2,27918,0,0.00,2,2,0,2,12034,50000,14515,21958,0,0,0,0,0.00,0.00,0.00,0.00
2016-09-08 16:50:00,2,50000,0,0.00,2,2,0,2,50000,50000,0,50000,0,0,0,0,0.00,0.00,0.00,0.00
2016-09-08 17:00:00,2,40019,0,0.00,2,2,0,2,22755,50000,9333,39570,0,0,0,0,0.00,0.00,0.00,0.00
2016-09-08 17:10:00,2,19464,0,0.00,2,2,0,2,8289,26370,5684,20440,0,0,0,0,0.00,0.00,0.00,0.00
2016-09-08 17:20:00,2,6546,5,0.00,2,2,0,2,4838,10376,1984,5464,0,10,5,5,0.00,0.00,0.00,0.00
2016-09-08 17:30:00,2,4457,10,0.00,2,2,0,2,3585,6297,869,4150,10,10,0,10,0.00,0.00,0.00,0.00
2016-09-08 17:40:00,2,10067,10,0.00,2,2,0,2,6196,16878,3335,8712,10,10,0,10,0.00,0.00,0.00,0.00
2016-09-08 17:50:00,2,33793,4,0.00,2,2,0,2,15463,50000,12676,32482,0,10,5,0,0.00,0.00,0.00,0.00
2016-09-08 18:00:00,2,49771,0,0.00,2,2,0,2,47707,50000,688,50000,0,0,0,0,0.00,0.00,0.00,0.00
2016-09-08 18:10:00,2,50000,0,0.00,2,2,0,2,50000,50000,0,50000,0,0,0,0,0.00,0.00,0.00,0.00
2016-09-08 18:20:00,2,50000,0,0.00,2,2,0,2,50000,50000,0,50000,0,0,0,0,0.00,0.00,0.00,0.00
2016-09-08 18:30:00,2,50000,0,0.00,2,2,0,2,50000,50000,0,50000,0,0,0,0,0.00,0.00,0.00,0.00
2016-09-08 18:40:00,2,50000,0,0.00,2,2,0,2,50000,50000,0,50000,0,0,0,0,0.00,0.00,0.00,0.00
2016-09-08 18:50:00,2,50000,0,0.00,2,2,0,2,50000,50000,0,50000,0,0,0,0,0.00,0.00,0.00,0.00
2016-09-08 19:00:00,2,50000,0,0.00,2,2,0,2,50000,50000,0,50000,0,0,0,0,0.00,0.00,0.00,0.00
2016-09-08 19:10:00,2,49969,0,0.00,2,2,0,2,49686,50000,94,50000,0,0,0,0,0.00,0.00,0.00,0.00
2016-09-08 19:20:00,2,49142,26,0.18,2,2,0,2,47054,50000,1061,49604,0,51,22,40,0.00,1.35,0.40,0.00
2016-09-08 19:30:00,2,28875,12,0.16,2,2,0,2,6653,50000,18239,32244,0,61,24,0,0.00,1.25,0.38,0.00
2016-09-08 19:40:00,2,6643,56,5.88,2,2,0,2,4964,7896,887,6930,52,62,5,52,2.20,13.80,4.22,3.50
2016-09-08 19:50:00,2,9744,62,14.41,2,2,0,2,2105,26029,8054,5800,61,62,0,62,2.60,31.60,9.61,13.65
2016-09-08 20:00:00,2,17109,61,4.31,2,2,0,2,7700,28277,5415,16193,61,62,0,61,1.00,13.60,3.42,3.23
2016-09-08 20:10:00,2,28658,58,0.72,2,2,0,2,16327,44425,9301,26916,51,61,5,61,0.10,2.65,0.71,0.50
2016-09-08 20:20:00,2,31136,51,0.62,2,2,0,2,13032,50000,13036,31182,51,52,0,51,0.10,2.15,0.56,0.52
2016-09-08 20:30:00,2,10886,56,0.45,2,2,0,2,6584,13450,2293,11321,51,61,5,56,0.05,1.30,0.41,0.22
2016-09-08 20:40:00,2,7024,50,0.68,2,2,0,2,5386,8336,783,7136,10,61,14,52,0.00,2.25,0.82,0.20
2016-09-08 20:50:00,2,6962,10,0.00,2,2,0,2,6080,7816,649,6908,10,10,0,10,0.00,0.00,0.00,0.00
2016-09-08 21:00:00,2,5788,10,0.00,2,2,0,2,5035,6996,623,5632,10,10,0,10,0.00,0.00,0.00,0.00
2016-09-08 21:10:00,2,6528,30,0.19,2,2,0,2,4927,9060,1381,6452,10,61,25,10,0.00,1.70,0.50,0.00
2016-09-08 21:20:00,2,5216,37,0.04,2,2,0,2,3719,6373,714,5415,10,61,22,51,0.00,0.10,0.04,0.03
2016-09-08 21:30:00,2,3573,10,0.00,2,2,0,2,3042,4138,330,3610,10,10,0,10,0.00,0.00,0.00,0.00
2016-09-08 21:40:00,2,7506,10,0.00,2,2,0,2,5163,9108,1249,7460,10,10,0,10,0.00,0.00,0.00,0.00
2016-09-08 21:50:00,2,8888,10,0.00,2,2,0,2,5196,12423,2455,8882,10,10,0,10,0.00,0.00,0.00,0.00
2016-09-08 22:00:00,2,18504,5,0.00,2,2,0,2,13665,24706,3570,18598,0,10,5,5,0.00,0.00,0.00,0.00
2016-09-08 22:10:00,2,28838,0,0.00,2,2,0,2,18194,47169,10678,23690,0,0,0,0,0.00,0.00,0.00,0.00
2016-09-08 22:20:00,2,41622,0,0.00,2,2,0,2,33324,49306,4876,41302,0,0,0,0,0.00,0.00,0.00,0.00
2016-09-08 22:30:00,2,24188,0,0.00,2,2,0,2,8685,43328,12343,25678,0,0,0,0,0.00,0.00,0.00,0.00
2016-09-08 22:40:00,2,14641,0,0.00,2,2,0,2,9307,23352,4646,13093,0,0,0,0,0.00,0.00,0.00,0.00
2016-09-08 22:50:00,2,9372,1,0.00,2,2,0,2,4026,16148,3620,8420,0,10,3,0,0.00,0.00,0.00,0.00
2016-09-08 23:00:00,2,5838,10,0.00,2,2,0,2,4638,9060,1222,5610,10,10,0,10,0.00,0.00,0.00,0.00
2016-09-08 23:10:00,2,11107,10,0.00,2,2,0,2,7052,24153,5429,8720,10,10,0,10,0.00,0.00,0.00,0.00
2016-09-08 23:20:00,2,19071,4,0.00,2,2,0,2,10239,35310,8351,16246,0,10,5,0,0.00,0.00,0.00,0.00
2016-09-08 23:30:00,2,21025,0,0.00,2,2,0,2,16077,29744,4617,19975,0,0,0,0,0.00,0.00,0.00,0.00
2016-09-08 23:40:00,2,49152,0,0.00,2,2,0,2,42636,50000,2197,50000,0,0,0,0,0.00,0.00,0.00,0.00
2016-09-08 23:50:00,2,49784,0,0.00,2,2,0,2,48476,50000,476,50000,0,0,0,0,0.00,0.00,0.00,0.00
